Regional Weather Roundup
Issued by NWS

Home | Current Version | Previous Version | Text Only | Print | Product List | Glossary On
Versions: 1 2 3 4 5 6 7 8 9 10 11 12 13 14 15 16 17 18 19 20 21 22 23 24 25 26 27 28 29 30 31 32 33 34 35 36 37 38 39 40 41 42 43 44 45 46 47 48 49 50
000
ASUS44 KJAN 230403
RWRMS

MISSISSIPPI HOURLY WEATHER ROUNDUP
NATIONAL WEATHER SERVICE JACKSON MS
1100 PM CDT FRI MAY 22 2015

NOTE: "FAIR: INDICATES FEW OR NO CLOUDS BELOW 12,000 FEET WITH NO
SIGNIFICANT WEATHER AND/OR OBSTRUCTIONS TO VISIBILITY.

MSZ001>002-007>008-010>013-018>021-025>028-034>036-230500-
NORTHWEST MISSISSIPPI

CITY           SKY/WX    TMP DP  RH WIND       PRES   REMARKS
CLARKSDALE     FAIR      64  54  68 CALM      30.23S
CLEVELAND      FAIR      65  55  70 E6        30.20F
GREENWOOD      CLEAR     62  54  74 E5        30.22S
GREENVILLE     CLEAR     66  54  65 E6        30.20F
OLIVE BRANCH   CLEAR     61  54  77 CALM      30.24F
OXFORD         FAIR      54  52  94 CALM      30.25F
TUNICA         CLEAR     61  55  82 NE3       30.24S
$$

MSZ003>006-009-014>017-022>024-029>033-037>039-230500-
NORTHEAST MISSISSIPPI

CITY           SKY/WX    TMP DP  RH WIND       PRES   REMARKS
COLUMBUS AFB   CLEAR     56  46  68 SE2       30.22F
CORINTH        FAIR      55  54  94 CALM      30.25S
GOLDN TRIANGLE CLEAR     61  55  82 CALM      30.22F
STARKVILLE     FAIR      55  54  94 CALM      30.24R
TUPELO         CLEAR     59  51  75 CALM      30.23S
$$

MSZ040-058-230500-
CENTRAL MISSISSIPPI

CITY           SKY/WX    TMP DP  RH WIND       PRES   REMARKS
JACKSON INTL   CLEAR     66  57  72 E6        30.21S
JACKSON HAWKNS CLEAR     66  57  72 E3        30.21F
MERIDIAN KEY   CLEAR     60  56  86 CALM      30.23S
MERIDIAN NAS   CLEAR     60  56  86 CALM      30.24R
RAYMOND          N/A    N/A N/A N/A MISG        N/A
VICKSBURG      CLEAR     67  58  72 E5        30.19F
$$

MSZ059>079-230500-
SOUTH MISSISSIPPI

CITY           SKY/WX    TMP DP  RH WIND       PRES   REMARKS
BROOKHAVEN     FAIR      68  61  77 CALM      30.22R
HATTIESBURG    CLOUDY    70  63  78 CALM      30.21S
MCCOMB         CLEAR     71  65  81 CALM      30.19R
NATCHEZ        CLEAR     66  63  88 CALM      30.19S
PINE BELT      CLOUDY    68  57  68 N5        30.22S
$$

MSZ080>082-230500-
COASTAL MISSISSIPPI

CITY           SKY/WX    TMP DP  RH WIND       PRES   REMARKS
BILOXI         MOCLDY    75  69  82 NE3       30.18S
PASCAGOULA     MOCLDY    68  66  93 CALM      30.19S
GULFPORT       CLOUDY    75  68  78 CALM      30.18R
$$


USA.gov is the U.S. government's official web portal to all federal, state and local government web resources and services.